Location: Dealu Mare
(46.0500°N, 22.8167°E)
Time: 22:34:28
(UTC+00:00)

BREEZE-M DEB (TANK) - Pass Details

Date: 15 January 2026
Orbit: 359 x 16120 km, 49.4° (Epoch: 11 February)

Event Time Altitude Azimuth Distance (km) Brightness Sun altitude
Exits shadow 03:06:41 67° 277° (W) 1,512 4.1 -30.7°
Maximum altitude 03:07:52 82° 346° (NNW) 1,623 4.4 -30.5°
Drops below altitude 10° 03:33:25 10° 78° (ENE) 10,180 9.6 -26.1°
Sets 03:50:29 0° 82° (E) 14,493 10.8 -23.1°
